Hourly Data Report for November 11, 2019

OTTAWA INTL A
ONTARIO
Current Station Operator: NAVCAN

45°19'00.000" N
75°40'00.000" W
114.90 m
6106001
71628
YOW

Download Data

Hourly Data (November 2019)
Hourly Data Report for November 11, 2019
TIME Temp Definition
°C
Dew Point Definition
°C
Rel Hum Definition
%
Wind Dir Definition
10's deg

Wind Spd Definition
km/h
Visibility Definition
km
Stn Press Definition
kPa
Hmdx Definition


Wind Chill Definition


Weather Definition


00:00 -4.1 -9.9 64 33 21 24.1 100.63   -11 LegendNANA
01:00 -4.5 -10.1 65 34 15 24.1 100.71   -10 Cloudy
02:00 -5.2 -10.8 65 36 16 24.1 100.78   -11 LegendNANA
03:00 -5.5 -10.9 66 35 14 24.1 100.82   -11 LegendNANA
04:00 -5.8 -10.4 71 1 16 12.9 100.92   -12 Snow Showers
05:00 -6.0 -11.7 64 35 11 24.1 100.97   -11 LegendNANA
06:00 -6.2 -11.1 68 4 12 24.1 101.02   -11 LegendNANA
07:00 -6.7 -12.7 62 4 17 24.1 101.08   -13 Mostly Cloudy
08:00 -6.6 -13.7 57 36 14 24.1 101.21   -12 LegendNANA
09:00 -6.4 -14.1 55 1 17 24.1 101.16   -13 LegendNANA
10:00 -5.6 -13.4 55 2 16 24.1 101.17   -12 Mainly Clear
11:00 -5.1 -13.6 52 3 13 24.1 101.16   -10 LegendNANA
12:00 -5.3 -15.2 46 36 13 24.1 101.11   -10 LegendNANA
13:00 -5.0 -15.0 46 5 16 24.1 101.02   -11 Cloudy
14:00 -4.9 -14.9 46 2 18 24.1 100.95   -11 LegendNANA
15:00 -5.2 -13.5 52 3 14 9.7 100.97   -11 Snow
16:00 -6.6 -9.2 82 7 11 3.2 101.03   -12 Snow
17:00 -7.0 -8.8 87 4 16 2.4 100.95   -13 Snow
18:00 -7.0 -8.7 88 2 19 6.4 100.92   -14 Snow
19:00 -7.2 -8.9 88 4 27 1.6 100.79   -15 Snow
20:00 -7.3 -8.9 88 2 23 2.4 100.78   -15 Snow
21:00 -7.4 -8.8 89 4 17 2.4 100.68   -14 Snow
22:00 -7.3 -9.0 88 4 21 2.4 100.61   -15 Snow
23:00 -7.3 -8.8 89 2 14 1.6 100.46   -13 Snow

Notes on Data Quality.

Legend

  • E = Estimated
  • M = Missing
  • NA = Not Available*
  • [empty] = Indicates an unobserved value
Date modified: